CW1203 Weather Reports


time (UTC)temp
F
wind
direction
speed
knots
gust
knots
rain 1hr
in
rain 24hr
in
rain mn
in
humidity
%
barometer
mb
20260509000100 57 207 0.0 0.0 0.00 0.00 0.00 75 1012.7
20260508234559 59 203 0.0 0.0 0.00 0.00 0.00 75 1012.7
20260508233132 59 202 0.0 0.0 0.00 0.00 0.00 74 1012.9
20260508231606 60 303 0.0 0.0 0.00 0.00 0.00 73 1012.8
20260508224557 61 66 0.0 0.0 0.00 0.01 0.00 72 1012.8
20260508223057 62 208 0.0 0.9 0.00 0.01 0.00 69 1012.9
20260508221556 62 80 0.0 2.6 0.00 0.01 0.00 70 1012.9
20260508220156 62 244 0.0 0.9 0.00 0.01 0.00 67 1012.8
20260508214555 63 53 0.0 1.7 0.00 0.01 0.00 66 1012.8
20260508213054 64 314 0.0 0.9 0.00 0.01 0.00 67 1013.0
20260508211559 64 279 0.0 3.5 0.00 0.01 0.00 65 1012.9
20260508210108 64 297 0.0 5.2 0.00 0.01 0.00 64 1012.8
20260508204555 65 303 0.0 2.6 0.00 0.01 0.00 63 1012.7
20260508203053 65 340 0.0 1.7 0.00 0.01 0.00 64 1012.9
20260508201555 65 70 0.0 3.5 0.00 0.01 0.00 62 1013.1
20260508200055 64 307 0.0 2.6 0.00 0.01 0.00 64 1013.1
20260508194552 65 250 0.9 4.3 0.00 0.01 0.00 56 1013.4
20260508193054 66 337 0.0 1.7 0.00 0.01 0.00 58 1013.6
20260508191551 65 37 0.0 3.5 0.00 0.01 0.00 58 1013.9
20260508190100 65 252 0.0 1.7 0.00 0.01 0.00 58 1014.0
20260508184601 65 71 0.0 4.3 0.00 0.01 0.00 58 1014.4
20260508183046 64 39 0.0 1.7 0.00 0.01 0.00 59 1014.6
20260508181556 63 352 0.0 4.3 0.00 0.01 0.00 62 1014.9
20260508180045 64 291 0.9 7.8 0.00 0.01 0.00 62 1014.7
20260508174545 63 72 0.0 2.6 0.00 0.01 0.00 59 1014.9
20260508173046 62 268 0.9 4.3 0.00 0.01 0.00 59 1015.1
20260508171541 62 259 0.0 4.3 0.00 0.01 0.00 63 1015.2
20260508170042 61 198 0.0 3.5 0.00 0.01 0.00 63 1015.6
20260508164554 62 211 0.0 1.7 0.00 0.01 0.00 60 1015.8
20260508163039 62 349 0.0 3.5 0.00 0.01 0.00 59 1016.0
20260508161546 62 285 0.0 3.5 0.00 0.01 0.00 62 1016.0
20260508160037 62 43 0.0 2.6 0.00 0.01 0.00 62 1016.2
20260508154542 62 200 0.0 2.6 0.00 0.01 0.00 64 1016.3
20260508153036 62 221 0.0 2.6 0.00 0.01 0.00 58 1016.4
20260508151534 62 316 0.0 0.0 0.00 0.01 0.00 66 1016.4
20260508150033 60 238 0.0 1.7 0.00 0.01 0.00 68 1016.4
20260508144545 59 75 0.0 2.6 0.00 0.01 0.00 68 1016.3
20260508143024 58 352 0.0 2.6 0.00 0.01 0.00 66 1016.3
20260508141522 57 15 0.0 0.9 0.00 0.01 0.00 65 1016.4
20260508140021 56 329 0.0 0.0 0.00 0.01 0.00 74 1016.6
20260508134526 55 37 0.0 0.9 0.00 0.05 0.00 73 1016.7
20260508133019 54 44 0.0 0.0 0.00 0.05 0.00 76 1016.7
20260508131511 53 86 0.0 1.7 0.00 0.05 0.00 75 1016.6
20260508130007 52 23 0.0 1.7 0.00 0.08 0.00 78 1016.4
20260508124549 51 68 0.0 0.0 0.00 0.08 0.00 80 1016.5
20260508123058 50 359 0.0 0.9 0.00 0.08 0.00 82 1016.3
20260508121545 48 283 0.0 1.7 0.00 0.08 0.00 86 1016.1
20260508120043 47 91 0.0 0.0 0.00 0.08 0.00 89 1016.0
20260508114541 47 354 0.0 0.0 0.00 0.14 0.00 89 1015.7
20260508113053 46 89 0.0 0.0 0.00 0.14 0.00 90 1015.4
20260508111542 46 96 0.0 0.0 0.00 0.14 0.00 90 1015.0
20260508110048 46 113 0.0 0.0 0.00 0.14 0.00 91 1014.8
20260508104533 46 335 0.0 1.7 0.00 0.18 0.00 90 1014.6
20260508103029 46 11 0.0 2.6 0.00 0.18 0.00 92 1014.3
20260508101525 46 105 0.0 0.0 0.00 0.18 0.00 89 1013.9
20260508100022 47 195 0.0 1.7 0.00 0.18 0.00 88 1013.6
20260508094520 48 52 0.0 2.6 0.00 0.21 0.00 86 1013.4
20260508093018 48 64 0.0 2.6 0.00 0.21 0.00 86 1013.4
20260508091517 48 75 0.0 3.5 0.00 0.21 0.00 88 1013.4
20260508090024 48 285 0.0 1.7 0.00 0.21 0.00 87 1013.3
20260508084514 49 116 0.0 2.6 0.00 0.21 0.00 86 1013.4
20260508083011 49 256 0.0 3.5 0.00 0.21 0.00 86 1013.1
20260508081509 49 183 0.0 5.2 0.00 0.21 0.00 87 1013.1
20260508080012 49 322 0.0 2.6 0.00 0.24 0.00 88 1012.9
20260508074516 49 296 0.0 2.6 0.00 0.24 0.00 88 1013.0
20260508073004 50 328 0.0 4.3 0.00 0.24 0.00 88 1013.0
20260508071503 50 3 0.0 7.8 0.00 0.24 0.00 87 1012.8
20260508070104 50 234 0.0 4.3 0.00 0.24 0.00 87 1012.8
20260508064600 50 101 0.0 2.6 0.00 0.27 0.00 86 1012.5
20260508063056 50 232 0.0 5.2 0.00 0.27 0.00 86 1012.5
20260508061555 51 333 0.9 6.1 0.00 0.27 0.00 85 1012.4
20260508060054 50 82 0.0 2.6 0.00 0.27 0.00 85 1012.4
20260508054553 51 240 0.0 5.2 0.00 0.35 0.00 84 1012.4
20260508053114 51 267 0.0 6.1 0.00 0.35 0.00 84 1012.4
20260508051550 51 319 0.0 3.5 0.00 0.35 0.00 83 1012.4
20260508050047 51 107 0.9 6.1 0.00 0.35 0.00 82 1012.2
20260508044546 51 91 0.0 5.2 0.00 0.38 0.00 82 1012.1
20260508043044 52 360 1.7 7.8 0.00 0.38 0.00 82 1011.8
20260508041607 51 301 0.9 8.7 0.00 0.38 0.00 82 1011.7
20260508040046 51 246 0.9 7.8 0.00 0.38 0.00 82 1011.5
20260508034538 52 302 1.7 6.1 0.00 0.38 0.38 83 1011.7
20260508033034 52 18 0.9 7.8 0.00 0.38 0.38 82 1011.8
20260508031537 52 277 2.6 7.8 0.00 0.38 0.38 82 1011.9
20260508030035 52 304 1.7 7.8 0.00 0.38 0.38 81 1011.7
20260508024531 52 266 1.7 7.8 0.00 0.45 0.38 81 1011.8
20260508023033 52 153 0.0 5.2 0.00 0.45 0.38 81 1011.6
20260508021529 52 96 0.0 7.0 0.00 0.45 0.38 80 1011.3
20260508020038 52 283 1.7 6.1 0.00 0.45 0.38 81 1011.3
20260508014528 52 86 0.0 2.6 0.00 0.53 0.38 81 1011.1
20260508013026 52 87 0.0 2.6 0.00 0.53 0.38 81 1011.0
20260508011524 53 112 0.0 2.6 0.00 0.53 0.38 79 1010.6
20260508010023 53 89 0.0 2.6 0.00 0.53 0.38 79 1010.4
20260508004521 54 47 0.0 7.0 0.00 0.53 0.38 79 1010.0
20260508003020 54 31 1.7 9.6 0.00 0.53 0.38 79 1009.6
20260508001517 55 209 0.9 6.1 0.00 0.53 0.38 79 1009.7